Tracking 28920 objects as of 26-May-2024
HD Live streaming from Space Station
objects crossing your sky now

STARLINK-5534

Track STARLINK-5534 now!
10-day predictions
STARLINK-5534 is classified as:


NORAD ID: 56477
Int'l Code: 2023-064AF
Perigee: 577.0 km
Apogee: 581.4 km
Inclination: 70.0 °
Period: 96.1 minutes
Semi major axis: 6950 km
RCS: Unknown
Launch date: May 10, 2023
Source: United States (US)
Launch site: AIR FORCE WESTERN TEST RANGE (AFWTR)
Your satellite tracking list
Your tracking list is empty




NASA's NSSDC Master Catalog

Two Line Element Set (TLE):
1 56477U 23064AF  24147.59450312  .00000292  00000-0  32277-4 0  9999
2 56477  69.9996 328.5436 0003175 268.5036  91.5760 14.98330343 58061
Source of the keplerian elements: AFSPC